User: anonymous   Login
Location: Caltech
(34.1382°N, 118.1253°W)
Time: 10:02:39
(UTC-07:00)
Language:

DELTA 2 R/B (1) - Orbit

View from above orbital plane
View from above orbital plane
View from above satellite
View from above satellite

Ground track
Ground track

The orbit data is extracted from the following two-line orbital elements,

1 27665U 03005C   15185.10917589 -.00000078  00000-0  27508-5 0  9997
2 27665 039.5748 145.9757 0008911 303.2398 118.1294 14.28346807648804
Epoch (UTC): 04 July 2015 02:37:12
Eccentricity: 0.0008911
inclination: 39.5748°
perigee height: 791 km
apogee height: 803 km
right ascension of ascending node: 145.9757°
argument of perigee: 303.2398°
revolutions per day: 14.28346807
mean anomaly at epoch: 118.1294°
orbit number at epoch: 64880

The dashed part of the orbit path shows where the satellite is in the earth's shadow,  

DLR